TimePDT,TemperatureF,Dew PointF,Humidity,Sea Level PressureIn,VisibilityMPH,Wind Direction,Wind SpeedMPH,Gust SpeedMPH,PrecipitationIn,Events,Conditions,WindDirDegrees,DateUTC
12:53 AM,62.1,53.1,72,29.87,10.0,WNW,9.2,-,N/A,,Clear,290,2013-08-21 07:53:00
1:53 AM,61.0,53.1,75,29.87,10.0,WNW,6.9,-,N/A,,Clear,300,2013-08-21 08:53:00
2:53 AM,61.0,54.0,78,29.87,10.0,WNW,6.9,-,N/A,,Clear,290,2013-08-21 09:53:00
3:53 AM,60.1,54.0,80,29.86,10.0,WNW,6.9,-,N/A,,Clear,290,2013-08-21 10:53:00
4:53 AM,60.1,55.0,83,29.87,10.0,WNW,8.1,-,N/A,,Clear,290,2013-08-21 11:53:00
5:53 AM,60.1,55.0,83,29.88,10.0,WNW,5.8,-,N/A,,Scattered Clouds,290,2013-08-21 12:53:00
6:02 AM,60.8,55.4,82,29.89,10.0,NW,6.9,-,N/A,,Mostly Cloudy,310,2013-08-21 13:02:00
6:53 AM,61.0,55.0,81,29.90,10.0,West,9.2,-,N/A,,Overcast,280,2013-08-21 13:53:00
7:53 AM,61.0,55.0,81,29.91,10.0,West,8.1,-,N/A,,Mostly Cloudy,280,2013-08-21 14:53:00
8:53 AM,63.0,54.0,72,29.92,10.0,WNW,8.1,-,N/A,,Mostly Cloudy,290,2013-08-21 15:53:00
9:53 AM,66.9,55.0,66,29.92,10.0,WNW,6.9,-,N/A,,Mostly Cloudy,300,2013-08-21 16:53:00
10:00 AM,66.2,55.4,68,29.93,10.0,WNW,8.1,-,N/A,,Partly Cloudy,290,2013-08-21 17:00:00
10:53 AM,71.1,55.0,57,29.92,10.0,WNW,8.1,-,N/A,,Clear,290,2013-08-21 17:53:00
11:53 AM,73.0,54.0,51,29.91,10.0,WNW,9.2,-,N/A,,Clear,300,2013-08-21 18:53:00
12:53 PM,78.1,54.0,43,29.90,10.0,NW,8.1,-,N/A,,Clear,310,2013-08-21 19:53:00
1:53 PM,82.0,53.1,37,29.87,10.0,WNW,5.8,-,N/A,,Clear,300,2013-08-21 20:53:00
2:53 PM,84.0,53.1,34,29.85,10.0,West,10.4,-,N/A,,Clear,280,2013-08-21 21:53:00
3:53 PM,86.0,54.0,33,29.83,10.0,WNW,10.4,-,N/A,,Clear,290,2013-08-21 22:53:00
4:53 PM,82.0,54.0,38,29.82,10.0,WNW,15.0,-,N/A,,Clear,290,2013-08-21 23:53:00
5:53 PM,78.1,54.0,43,29.82,10.0,West,19.6,-,N/A,,Clear,280,2013-08-22 00:53:00
6:53 PM,73.0,54.0,51,29.84,10.0,West,17.3,21.9,N/A,,Clear,270,2013-08-22 01:53:00
7:53 PM,66.9,54.0,63,29.86,10.0,West,16.1,-,N/A,,Clear,280,2013-08-22 02:53:00
8:53 PM,63.0,54.0,72,29.89,10.0,WNW,19.6,-,N/A,,Clear,290,2013-08-22 03:53:00
9:53 PM,62.1,54.0,75,29.91,10.0,WNW,10.4,-,N/A,,Clear,290,2013-08-22 04:53:00
10:53 PM,61.0,54.0,78,29.92,10.0,West,8.1,-,N/A,,Clear,280,2013-08-22 05:53:00
11:53 PM,60.1,54.0,80,29.92,10.0,West,9.2,-,N/A,,Clear,270,2013-08-22 06:53:00